This is the latest recevied weather packets stored in our database for station/object DH1FR-13. If no packets are shown the sender has not sent any weather packets the latest 1 day(s).
| Time | Temp. | Humidity | Pressure | Rain* | Wind** | Luminosity | Snow |
|---|---|---|---|---|---|---|---|
| 1836274374 | 8.89° C | 99% | 1022.2 hPa | 0 mm | 0 m/s | - | - |
| 1836274224 | 8.89° C | 99% | 1022.1 hPa | 0 mm | 0 m/s | - | - |
| 1778031000 | 11.67° C | 99% | 1008.7 hPa | 0.76 mm | 0 m/s | - | - |
| 1778030400 | 11.67° C | 99% | 1008.8 hPa | 0.76 mm | 0 m/s | - | - |
| 1778029800 | 11.67° C | 99% | 1008.7 hPa | 0.76 mm | 0 m/s | - | - |
| 1778029200 | 11.67° C | 99% | 1008.8 hPa | 0.76 mm | 0 m/s | - | - |
| 1778028600 | 11.67° C | 99% | 1008.7 hPa | 0.76 mm | 0 m/s | - | - |
| 1778028001 | 11.67° C | 99% | 1009 hPa | 0.76 mm | 0 m/s | - | - |
| 1778027401 | 11.67° C | 99% | 1009.1 hPa | 0.51 mm | 0 m/s | - | - |
| 1778026801 | 11.67° C | 99% | 1009.2 hPa | 0.51 mm | 0 m/s | - | - |
| 1778026200 | 11.67° C | 99% | 1009.2 hPa | 0.51 mm | 0 m/s | - | - |
| 1778025600 | 11.67° C | 99% | 1009.2 hPa | 0.51 mm | 0 m/s | - | - |
| 1778025000 | 11.67° C | 99% | 1009.2 hPa | 0.51 mm | 0 m/s | - | - |
| 1778024401 | 11.67° C | 99% | 1009.2 hPa | 0.25 mm | 0 m/s | - | - |
| 1778023800 | 12.22° C | 99% | 1009.2 hPa | 0.25 mm | 0 m/s | - | - |
| 1778023200 | 12.22° C | 99% | 1009.5 hPa | 0 mm | 0 m/s | - | - |
| 1778022601 | 12.22° C | 99% | 1009.7 hPa | 21.08 mm | 0 m/s | - | - |
| 1778022000 | 12.22° C | 99% | 1009.6 hPa | 20.83 mm | 0 m/s | - | - |
| 1778021402 | 12.22° C | 99% | 1009.8 hPa | 20.57 mm | 0 m/s | - | - |
| 1778020801 | 12.22° C | 99% | 1009.7 hPa | 20.32 mm | 0 m/s | - | - |
| 1778020201 | 12.22° C | 99% | 1009.6 hPa | 20.32 mm | 0 m/s | - | - |
| 1778019604 | 12.22° C | 99% | 1009.7 hPa | 20.32 mm | 0 m/s | - | - |
| 1778019001 | 12.22° C | 99% | 1009.9 hPa | 20.07 mm | 0 m/s | - | - |
| 1778018401 | 12.22° C | 99% | 1010 hPa | 20.07 mm | 0 m/s | - | - |
| 1778017800 | 12.22° C | 99% | 1009.7 hPa | 19.56 mm | 0 m/s | - | - |
* Rain latest hour (hover to see other rain measurements)
** Current wind speed in m/s (hover to see current wind gust speed)